Time,TemperatureF,DewpointF,PressureIn,WindDirection,WindDirectionDegrees,WindSpeedMPH,WindSpeedGustMPH,Humidity,HourlyPrecipIn,Conditions,Clouds,dailyrainin,SoftwareType,DateUTC
2013-01-20 00:01:00,42.5,35.8,30.15,East,96,0.0,0.0,77,0.00,,---,0.00,VWS V14.01,2013-01-20 08:01:00,
2013-01-20 00:06:00,42.4,35.7,30.14,East,96,0.0,0.0,77,0.00,,---,0.00,VWS V14.01,2013-01-20 08:06:00,
2013-01-20 00:11:00,42.3,35.9,30.15,East,96,0.0,0.0,78,0.00,,---,0.00,VWS V14.01,2013-01-20 08:11:00,
2013-01-20 00:16:00,42.2,35.8,30.15,East,96,0.0,0.0,78,0.00,,---,0.00,VWS V14.01,2013-01-20 08:16:00,
2013-01-20 00:21:00,42.2,35.8,30.15,East,96,0.0,0.0,78,0.00,,---,0.00,VWS V14.01,2013-01-20 08:21:00,
2013-01-20 00:26:00,42.1,35.8,30.15,East,96,0.0,0.0,78,0.00,,---,0.00,VWS V14.01,2013-01-20 08:26:00,
2013-01-20 00:31:00,42.0,35.7,30.14,East,96,0.0,0.0,78,0.00,,---,0.00,VWS V14.01,2013-01-20 08:31:00,
2013-01-20 00:36:00,41.9,35.5,30.15,East,96,0.0,0.0,78,0.00,,---,0.00,VWS V14.01,2013-01-20 08:36:00,
2013-01-20 00:41:00,41.8,35.1,30.15,East,96,0.0,0.0,77,0.00,,---,0.00,VWS V14.01,2013-01-20 08:41:00,
2013-01-20 00:46:00,41.7,35.0,30.15,East,96,0.0,0.0,77,0.00,,---,0.00,VWS V14.01,2013-01-20 08:46:00,
2013-01-20 00:51:00,41.5,34.8,30.15,NNE,28,0.0,0.0,77,0.00,,---,0.00,VWS V14.01,2013-01-20 08:51:00,
2013-01-20 00:56:00,41.5,35.2,30.15,NNE,30,0.0,0.0,78,0.00,,---,0.00,VWS V14.01,2013-01-20 08:56:00,
2013-01-20 01:01:00,41.4,35.1,30.14,NNE,30,0.0,0.0,78,0.00,,---,0.00,VWS V14.01,2013-01-20 09:01:00,
2013-01-20 01:06:00,41.3,35.0,30.14,NNE,30,0.0,0.0,78,0.00,,---,0.00,VWS V14.01,2013-01-20 09:06:00,
2013-01-20 01:11:00,41.2,34.9,30.14,NNE,23,0.0,0.0,78,0.00,,---,0.00,VWS V14.01,2013-01-20 09:11:00,
2013-01-20 01:17:00,41.1,34.8,30.14,NNE,24,0.0,0.0,78,0.00,,---,0.00,VWS V14.01,2013-01-20 09:17:00,
2013-01-20 01:22:00,41.1,34.8,30.14,NNE,23,0.0,0.0,78,0.00,,---,0.00,VWS V14.01,2013-01-20 09:22:00,
2013-01-20 01:27:00,41.1,34.8,30.14,NNE,24,0.0,0.0,78,0.00,,---,0.00,VWS V14.01,2013-01-20 09:27:00,
2013-01-20 01:32:00,41.1,34.8,30.14,NNE,24,0.0,0.0,78,0.00,,---,0.00,VWS V14.01,2013-01-20 09:32:00,
2013-01-20 01:37:00,41.1,34.5,30.15,NNE,24,0.0,0.0,77,0.00,,---,0.00,VWS V14.01,2013-01-20 09:37:00,
2013-01-20 01:42:00,41.1,34.5,30.15,North,9,0.0,0.0,77,0.00,,---,0.00,VWS V14.01,2013-01-20 09:42:00,
2013-01-20 01:47:00,41.1,34.5,30.15,North,5,0.0,0.0,77,0.00,,---,0.00,VWS V14.01,2013-01-20 09:47:00,
2013-01-20 01:52:00,41.0,34.3,30.15,North,9,0.0,0.0,77,0.00,,---,0.00,VWS V14.01,2013-01-20 09:52:00,
2013-01-20 01:57:00,41.0,34.3,30.15,North,5,0.0,0.0,77,0.00,,---,0.00,VWS V14.01,2013-01-20 09:57:00,
2013-01-20 02:02:00,40.9,34.3,30.15,North,5,0.0,0.0,77,0.00,,---,0.00,VWS V14.01,2013-01-20 10:02:00,
2013-01-20 02:07:00,40.8,34.2,30.15,North,5,0.0,0.0,77,0.00,,---,0.00,VWS V14.01,2013-01-20 10:07:00,
2013-01-20 02:12:00,40.7,34.1,30.15,North,5,0.0,0.0,77,0.00,,---,0.00,VWS V14.01,2013-01-20 10:12:00,
2013-01-20 02:17:00,40.6,33.6,30.15,North,5,0.0,0.0,76,0.00,,---,0.00,VWS V14.01,2013-01-20 10:17:00,
2013-01-20 02:22:00,40.5,33.5,30.15,North,5,0.0,0.0,76,0.00,,---,0.00,VWS V14.01,2013-01-20 10:22:00,
2013-01-20 02:27:00,40.5,33.5,30.15,North,9,0.0,0.0,76,0.00,,---,0.00,VWS V14.01,2013-01-20 10:27:00,
2013-01-20 02:32:00,40.5,33.5,30.15,North,5,0.0,0.0,76,0.00,,---,0.00,VWS V14.01,2013-01-20 10:32:00,
2013-01-20 02:37:00,40.4,33.5,30.15,North,9,0.0,0.0,76,0.00,,---,0.00,VWS V14.01,2013-01-20 10:37:00,
2013-01-20 02:43:00,40.2,33.2,30.16,SSE,150,0.0,0.0,76,0.00,,---,0.00,VWS V14.01,2013-01-20 10:43:00,
2013-01-20 02:48:00,40.1,33.2,30.16,SSE,150,0.0,0.0,76,0.00,,---,0.00,VWS V14.01,2013-01-20 10:48:00,
2013-01-20 02:53:00,40.0,33.1,30.16,SSE,149,0.0,0.0,76,0.00,,---,0.00,VWS V14.01,2013-01-20 10:53:00,
2013-01-20 02:58:00,40.0,33.1,30.16,SSE,150,0.0,0.0,76,0.00,,---,0.00,VWS V14.01,2013-01-20 10:58:00,
2013-01-20 03:03:00,40.2,33.2,30.15,SSE,150,0.0,0.0,76,0.00,,---,0.00,VWS V14.01,2013-01-20 11:03:00,
2013-01-20 03:08:00,40.2,32.9,30.15,SSE,150,0.0,0.0,75,0.00,,---,0.00,VWS V14.01,2013-01-20 11:08:00,
2013-01-20 03:13:00,40.0,33.1,30.15,SSE,150,0.0,0.0,76,0.00,,---,0.00,VWS V14.01,2013-01-20 11:13:00,
2013-01-20 03:18:00,40.0,33.1,30.15,SSE,150,0.0,0.0,76,0.00,,---,0.00,VWS V14.01,2013-01-20 11:18:00,
2013-01-20 03:23:00,39.9,33.0,30.15,SSE,150,0.0,0.0,76,0.00,,---,0.00,VWS V14.01,2013-01-20 11:23:00,
2013-01-20 03:28:00,39.8,32.9,30.15,SSE,150,0.0,0.0,76,0.00,,---,0.00,VWS V14.01,2013-01-20 11:28:00,
2013-01-20 03:33:00,39.7,32.8,30.15,SSE,150,1.0,0.0,76,0.00,,---,0.00,VWS V14.01,2013-01-20 11:33:00,
2013-01-20 03:38:00,39.6,32.7,30.15,SSE,150,0.0,0.0,76,0.00,,---,0.00,VWS V14.01,2013-01-20 11:38:00,
2013-01-20 03:43:00,39.5,32.6,30.15,SSE,150,0.0,0.0,76,0.00,,---,0.00,VWS V14.01,2013-01-20 11:43:00,
2013-01-20 03:48:00,39.5,32.6,30.15,SSE,150,0.0,0.0,76,0.00,,---,0.00,VWS V14.01,2013-01-20 11:48:00,
2013-01-20 03:53:00,39.6,32.3,30.15,SSE,150,0.0,0.0,75,0.00,,---,0.00,VWS V14.01,2013-01-20 11:53:00,
2013-01-20 03:59:00,39.5,32.2,30.15,SSE,150,0.0,0.0,75,0.00,,---,0.00,VWS V14.01,2013-01-20 11:59:00,
2013-01-20 04:04:00,39.4,32.2,30.15,East,94,0.0,0.0,75,0.00,,---,0.00,VWS V14.01,2013-01-20 12:04:00,
2013-01-20 04:09:00,39.3,32.0,30.15,ESE,104,0.0,0.0,75,0.00,,---,0.00,VWS V14.01,2013-01-20 12:09:00,
2013-01-20 04:14:00,39.5,31.9,30.14,ESE,108,0.0,0.0,74,0.00,,---,0.00,VWS V14.01,2013-01-20 12:14:00,
2013-01-20 04:19:00,39.6,32.0,30.14,ESE,105,0.0,0.0,74,0.00,,---,0.00,VWS V14.01,2013-01-20 12:19:00,
2013-01-20 04:24:00,39.6,32.0,30.14,ESE,105,0.0,0.0,74,0.00,,---,0.00,VWS V14.01,2013-01-20 12:24:00,
2013-01-20 04:29:00,39.5,31.9,30.14,ESE,105,0.0,0.0,74,0.00,,---,0.00,VWS V14.01,2013-01-20 12:29:00,
2013-01-20 04:34:00,39.3,31.7,30.14,ESE,105,0.0,0.0,74,0.00,,---,0.00,VWS V14.01,2013-01-20 12:34:00,
2013-01-20 04:39:00,39.4,31.5,30.14,ESE,105,0.0,0.0,73,0.00,,---,0.00,VWS V14.01,2013-01-20 12:39:00,
2013-01-20 04:44:00,39.5,31.6,30.14,ESE,105,0.0,0.0,73,0.00,,---,0.00,VWS V14.01,2013-01-20 12:44:00,
2013-01-20 04:49:00,39.5,31.6,30.14,ESE,106,0.0,0.0,73,0.00,,---,0.00,VWS V14.01,2013-01-20 12:49:00,
2013-01-20 04:54:00,39.5,31.2,30.14,ESE,105,0.0,0.0,72,0.00,,---,0.00,VWS V14.01,2013-01-20 12:54:00,
2013-01-20 04:59:00,39.4,31.1,30.14,ESE,105,0.0,0.0,72,0.00,,---,0.00,VWS V14.01,2013-01-20 12:59:00,
2013-01-20 05:04:00,39.3,31.0,30.14,ESE,105,1.0,0.0,72,0.00,,---,0.00,VWS V14.01,2013-01-20 13:04:00,
2013-01-20 05:09:00,39.2,31.0,30.14,ESE,105,0.0,0.0,72,0.00,,---,0.00,VWS V14.01,2013-01-20 13:09:00,
2013-01-20 05:14:00,39.1,30.9,30.14,ESE,105,0.0,0.0,72,0.00,,---,0.00,VWS V14.01,2013-01-20 13:14:00,
2013-01-20 05:19:00,39.1,30.9,30.14,ESE,105,0.0,0.0,72,0.00,,---,0.00,VWS V14.01,2013-01-20 13:19:00,
2013-01-20 05:24:00,39.1,30.9,30.14,East,96,4.0,0.0,72,0.00,,---,0.00,VWS V14.01,2013-01-20 13:24:00,
2013-01-20 05:29:00,39.2,30.6,30.14,ESE,110,0.0,0.0,71,0.00,,---,0.00,VWS V14.01,2013-01-20 13:29:00,
2013-01-20 05:34:00,39.3,30.7,30.14,East,96,0.0,0.0,71,0.00,,---,0.00,VWS V14.01,2013-01-20 13:34:00,
2013-01-20 05:39:00,39.3,30.7,30.14,ESE,111,1.0,0.0,71,0.00,,---,0.00,VWS V14.01,2013-01-20 13:39:00,
2013-01-20 05:45:00,39.3,30.7,30.13,East,94,0.0,0.0,71,0.00,,---,0.00,VWS V14.01,2013-01-20 13:45:00,
2013-01-20 05:50:00,39.2,30.6,30.13,East,94,0.0,0.0,71,0.00,,---,0.00,VWS V14.01,2013-01-20 13:50:00,
2013-01-20 05:55:00,39.2,30.6,30.13,East,98,0.0,0.0,71,0.00,,---,0.00,VWS V14.01,2013-01-20 13:55:00,
2013-01-20 06:00:00,39.0,30.4,30.13,ESE,115,0.0,0.0,71,0.00,,---,0.00,VWS V14.01,2013-01-20 14:00:00,
2013-01-20 06:05:00,38.9,30.3,30.13,ESE,116,1.0,0.0,71,0.00,,---,0.00,VWS V14.01,2013-01-20 14:05:00,
2013-01-20 06:10:00,38.9,30.7,30.13,ESE,116,0.0,0.0,72,0.00,,---,0.00,VWS V14.01,2013-01-20 14:10:00,
2013-01-20 06:15:00,38.7,30.5,30.13,ESE,117,0.0,0.0,72,0.00,,---,0.00,VWS V14.01,2013-01-20 14:15:00,
2013-01-20 06:20:00,38.5,30.3,30.13,ESE,115,0.0,0.0,72,0.00,,---,0.00,VWS V14.01,2013-01-20 14:20:00,
2013-01-20 06:25:00,38.4,30.2,30.13,ESE,120,0.0,0.0,72,0.00,,---,0.00,VWS V14.01,2013-01-20 14:25:00,
2013-01-20 06:30:00,38.3,29.7,30.13,ESE,120,0.0,0.0,71,0.00,,---,0.00,VWS V14.01,2013-01-20 14:30:00,
2013-01-20 06:35:00,38.4,30.2,30.13,ESE,120,0.0,0.0,72,0.00,,---,0.00,VWS V14.01,2013-01-20 14:35:00,
2013-01-20 06:40:00,38.4,29.8,30.13,ESE,120,0.0,0.0,71,0.00,,---,0.00,VWS V14.01,2013-01-20 14:40:00,
2013-01-20 06:45:00,38.3,30.1,30.13,ESE,120,0.0,0.0,72,0.00,,---,0.00,VWS V14.01,2013-01-20 14:45:00,
2013-01-20 06:50:00,38.2,30.0,30.13,ESE,120,0.0,0.0,72,0.00,,---,0.00,VWS V14.01,2013-01-20 14:50:00,
2013-01-20 06:55:00,38.1,29.9,30.13,ESE,120,0.0,0.0,72,0.00,,---,0.00,VWS V14.01,2013-01-20 14:55:00,
2013-01-20 07:00:00,38.0,29.8,30.13,ESE,120,0.0,0.0,72,0.00,,---,0.00,VWS V14.01,2013-01-20 15:00:00,
2013-01-20 07:05:00,37.9,29.7,30.13,ESE,119,0.0,0.0,72,0.00,,---,0.00,VWS V14.01,2013-01-20 15:05:00,
2013-01-20 07:10:00,37.9,29.4,30.13,ESE,120,0.0,0.0,71,0.00,,---,0.00,VWS V14.01,2013-01-20 15:10:00,
2013-01-20 07:15:00,38.0,29.5,30.13,ESE,120,0.0,0.0,71,0.00,,---,0.00,VWS V14.01,2013-01-20 15:15:00,
2013-01-20 07:21:00,38.1,29.5,30.13,ESE,103,0.0,0.0,71,0.00,,---,0.00,VWS V14.01,2013-01-20 15:21:00,
2013-01-20 07:26:00,38.3,29.4,30.13,ESE,102,0.0,0.0,70,0.00,,---,0.00,VWS V14.01,2013-01-20 15:26:00,
2013-01-20 07:31:00,38.3,29.4,30.13,ESE,103,0.0,0.0,70,0.00,,---,0.00,VWS V14.01,2013-01-20 15:31:00,
2013-01-20 07:36:00,38.3,29.4,30.13,East,83,0.0,0.0,70,0.00,,---,0.00,VWS V14.01,2013-01-20 15:36:00,
2013-01-20 07:41:00,38.2,29.3,30.13,East,83,0.0,0.0,70,0.00,,---,0.00,VWS V14.01,2013-01-20 15:41:00,
2013-01-20 07:46:00,38.2,29.3,30.13,East,83,0.0,0.0,70,0.00,,---,0.00,VWS V14.01,2013-01-20 15:46:00,
2013-01-20 07:51:00,38.2,29.3,30.13,East,83,0.0,0.0,70,0.00,,---,0.00,VWS V14.01,2013-01-20 15:51:00,
2013-01-20 07:56:00,38.2,29.3,30.13,East,83,1.0,0.0,70,0.00,,---,0.00,VWS V14.01,2013-01-20 15:56:00,
2013-01-20 08:01:00,38.2,29.3,30.13,East,83,0.0,0.0,70,0.00,,---,0.00,VWS V14.01,2013-01-20 16:01:00,
2013-01-20 08:06:00,38.3,29.4,30.13,East,83,0.0,0.0,70,0.00,,---,0.00,VWS V14.01,2013-01-20 16:06:00,
2013-01-20 08:11:00,38.4,29.1,30.13,East,83,0.0,0.0,69,0.00,,---,0.00,VWS V14.01,2013-01-20 16:11:00,
2013-01-20 08:16:00,38.6,29.7,30.13,East,83,0.0,0.0,70,0.00,,---,0.00,VWS V14.01,2013-01-20 16:16:00,
2013-01-20 08:21:00,38.6,29.7,30.13,East,83,0.0,0.0,70,0.00,,---,0.00,VWS V14.01,2013-01-20 16:21:00,
2013-01-20 08:26:00,38.8,29.9,30.14,East,98,0.0,0.0,70,0.00,,---,0.00,VWS V14.01,2013-01-20 16:26:00,
2013-01-20 08:31:00,39.0,29.7,30.14,East,98,0.0,0.0,69,0.00,,---,0.00,VWS V14.01,2013-01-20 16:31:00,
2013-01-20 08:36:00,39.1,30.2,30.14,East,98,0.0,0.0,70,0.00,,---,0.00,VWS V14.01,2013-01-20 16:36:00,
2013-01-20 08:41:00,39.1,30.2,30.14,East,98,0.0,0.0,70,0.00,,---,0.00,VWS V14.01,2013-01-20 16:41:00,
2013-01-20 08:46:00,39.2,30.2,30.14,East,98,0.0,0.0,70,0.00,,---,0.00,VWS V14.01,2013-01-20 16:46:00,
2013-01-20 08:51:00,39.4,30.8,30.14,East,98,0.0,0.0,71,0.00,,---,0.00,VWS V14.01,2013-01-20 16:51:00,
2013-01-20 08:57:00,39.5,30.5,30.14,East,98,0.0,0.0,70,0.00,,---,0.00,VWS V14.01,2013-01-20 16:57:00,
2013-01-20 09:02:00,39.7,30.4,30.14,East,98,0.0,0.0,69,0.00,,---,0.00,VWS V14.01,2013-01-20 17:02:00,
2013-01-20 09:07:00,40.0,29.9,30.14,East,98,0.0,0.0,67,0.00,,---,0.00,VWS V14.01,2013-01-20 17:07:00,
2013-01-20 09:12:00,40.5,30.8,30.14,East,98,0.0,0.0,68,0.00,,---,0.00,VWS V14.01,2013-01-20 17:12:00,
2013-01-20 09:17:00,40.8,31.1,30.14,East,98,2.0,0.0,68,0.00,,---,0.00,VWS V14.01,2013-01-20 17:17:00,
2013-01-20 09:22:00,41.5,31.4,30.14,East,98,1.0,0.0,67,0.00,,---,0.00,VWS V14.01,2013-01-20 17:22:00,
2013-01-20 09:27:00,42.4,31.9,30.14,East,98,0.0,0.0,66,0.00,,---,0.00,VWS V14.01,2013-01-20 17:27:00,
2013-01-20 09:32:00,43.4,32.4,30.14,East,98,0.0,0.0,65,0.00,,---,0.00,VWS V14.01,2013-01-20 17:32:00,
2013-01-20 09:37:00,44.4,31.8,30.14,East,98,1.0,0.0,61,0.00,,---,0.00,VWS V14.01,2013-01-20 17:37:00,
2013-01-20 09:42:00,45.6,32.5,30.14,East,98,0.0,0.0,60,0.00,,---,0.00,VWS V14.01,2013-01-20 17:42:00,
2013-01-20 09:47:00,46.7,31.4,30.15,East,98,1.0,0.0,55,0.00,,---,0.00,VWS V14.01,2013-01-20 17:47:00,
2013-01-20 09:52:00,47.6,32.2,30.15,East,98,0.0,0.0,55,0.00,,---,0.00,VWS V14.01,2013-01-20 17:52:00,
2013-01-20 09:57:00,48.4,32.1,30.15,East,98,0.0,0.0,53,0.00,,---,0.00,VWS V14.01,2013-01-20 17:57:00,
2013-01-20 10:02:00,49.1,30.3,30.15,East,98,0.0,0.0,48,0.00,,---,0.00,VWS V14.01,2013-01-20 18:02:00,
2013-01-20 10:07:00,49.9,31.5,30.15,East,98,0.0,0.0,49,0.00,,---,0.00,VWS V14.01,2013-01-20 18:07:00,
2013-01-20 10:13:00,50.9,31.9,30.15,East,98,0.0,0.0,48,0.00,,---,0.00,VWS V14.01,2013-01-20 18:13:00,
2013-01-20 10:18:00,51.7,32.7,30.15,East,98,0.0,0.0,48,0.00,,---,0.00,VWS V14.01,2013-01-20 18:18:00,
2013-01-20 10:23:00,52.4,31.7,30.15,East,83,2.0,0.0,45,0.00,,---,0.00,VWS V14.01,2013-01-20 18:23:00,
2013-01-20 10:28:00,52.7,32.0,30.15,East,83,0.0,0.0,45,0.00,,---,0.00,VWS V14.01,2013-01-20 18:28:00,
2013-01-20 10:33:00,53.0,32.8,30.15,East,83,1.0,0.0,46,0.00,,---,0.00,VWS V14.01,2013-01-20 18:33:00,
2013-01-20 10:38:00,53.3,33.1,30.15,East,82,0.0,0.0,46,0.00,,---,0.00,VWS V14.01,2013-01-20 18:38:00,
2013-01-20 10:43:00,53.6,32.2,30.14,East,82,0.0,0.0,44,0.00,,---,0.00,VWS V14.01,2013-01-20 18:43:00,
2013-01-20 10:48:00,54.0,32.0,30.14,NE,51,0.0,0.0,43,0.00,,---,0.00,VWS V14.01,2013-01-20 18:48:00,
2013-01-20 10:53:00,54.4,31.8,30.14,NE,39,0.0,0.0,42,0.00,,---,0.00,VWS V14.01,2013-01-20 18:53:00,
2013-01-20 10:58:00,54.6,31.4,30.14,East,84,0.0,0.0,41,0.00,,---,0.00,VWS V14.01,2013-01-20 18:58:00,
2013-01-20 11:03:00,54.8,32.2,30.14,NNE,24,0.0,0.0,42,0.00,,---,0.00,VWS V14.01,2013-01-20 19:03:00,
2013-01-20 11:08:00,55.2,33.1,30.14,NNW,336,0.0,0.0,43,0.00,,---,0.00,VWS V14.01,2013-01-20 19:08:00,
2013-01-20 11:13:00,55.5,33.4,30.13,NW,326,0.0,0.0,43,0.00,,---,0.00,VWS V14.01,2013-01-20 19:13:00,
2013-01-20 11:18:00,55.8,32.5,30.13,NNW,327,1.0,0.0,41,0.00,,---,0.00,VWS V14.01,2013-01-20 19:18:00,
2013-01-20 11:23:00,56.3,34.1,30.13,ENE,67,0.0,0.0,43,0.00,,---,0.00,VWS V14.01,2013-01-20 19:23:00,
2013-01-20 11:29:00,56.9,34.1,30.13,NNE,18,0.0,0.0,42,0.00,,---,0.00,VWS V14.01,2013-01-20 19:29:00,
2013-01-20 11:34:00,57.7,34.8,30.12,NNW,339,0.0,0.0,42,0.00,,---,0.00,VWS V14.01,2013-01-20 19:34:00,
2013-01-20 11:39:00,58.2,33.4,30.12,ENE,58,0.0,0.0,39,0.00,,---,0.00,VWS V14.01,2013-01-20 19:39:00,
2013-01-20 11:44:00,58.4,34.8,30.12,NE,51,0.0,0.0,41,0.00,,---,0.00,VWS V14.01,2013-01-20 19:44:00,
2013-01-20 11:49:00,58.5,34.3,30.12,NE,51,0.0,0.0,40,0.00,,---,0.00,VWS V14.01,2013-01-20 19:49:00,
2013-01-20 11:54:00,58.7,33.8,30.12,NE,40,0.0,0.0,39,0.00,,---,0.00,VWS V14.01,2013-01-20 19:54:00,
2013-01-20 11:59:00,58.9,33.4,30.12,WNW,294,2.0,0.0,38,0.00,,---,0.00,VWS V14.01,2013-01-20 19:59:00,
2013-01-20 12:04:00,59.0,34.7,30.11,NNE,15,0.0,0.0,40,0.00,,---,0.00,VWS V14.01,2013-01-20 20:04:00,
2013-01-20 12:09:00,59.3,34.4,30.11,NE,40,0.0,0.0,39,0.00,,---,0.00,VWS V14.01,2013-01-20 20:09:00,
2013-01-20 12:14:00,59.6,34.6,30.11,NNE,25,2.0,0.0,39,0.00,,---,0.00,VWS V14.01,2013-01-20 20:14:00,
2013-01-20 12:19:00,59.9,35.5,30.10,NNW,348,1.0,0.0,40,0.00,,---,0.00,VWS V14.01,2013-01-20 20:19:00,
2013-01-20 12:24:00,60.2,35.8,30.10,North,355,0.0,0.0,40,0.00,,---,0.00,VWS V14.01,2013-01-20 20:24:00,
2013-01-20 12:29:00,60.8,35.7,30.10,WNW,288,0.0,0.0,39,0.00,,---,0.00,VWS V14.01,2013-01-20 20:29:00,
2013-01-20 12:34:00,61.0,36.5,30.09,NW,310,0.0,0.0,40,0.00,,---,0.00,VWS V14.01,2013-01-20 20:34:00,
2013-01-20 12:40:00,61.4,35.6,30.09,NNE,31,0.0,0.0,38,0.00,,---,0.00,VWS V14.01,2013-01-20 20:40:00,
2013-01-20 12:45:00,61.4,35.6,30.09,NNW,338,2.0,0.0,38,0.00,,---,0.00,VWS V14.01,2013-01-20 20:45:00,
2013-01-20 12:50:00,61.7,35.2,30.09,NNW,343,0.0,0.0,37,0.00,,---,0.00,VWS V14.01,2013-01-20 20:50:00,
2013-01-20 12:55:00,62.0,37.4,30.09,NNW,340,0.0,0.0,40,0.00,,---,0.00,VWS V14.01,2013-01-20 20:55:00,
2013-01-20 13:00:00,62.7,36.1,30.08,NNW,344,1.0,0.0,37,0.00,,---,0.00,VWS V14.01,2013-01-20 21:00:00,
2013-01-20 13:05:00,63.3,35.9,30.08,NNE,28,0.0,0.0,36,0.00,,---,0.00,VWS V14.01,2013-01-20 21:05:00,
2013-01-20 13:10:00,63.7,37.0,30.08,West,280,3.0,0.0,37,0.00,,---,0.00,VWS V14.01,2013-01-20 21:10:00,
2013-01-20 13:15:00,63.7,38.3,30.07,NNE,27,0.0,0.0,39,0.00,,---,0.00,VWS V14.01,2013-01-20 21:15:00,
2013-01-20 13:20:00,64.2,37.4,30.07,NNW,331,3.0,0.0,37,0.00,,---,0.00,VWS V14.01,2013-01-20 21:20:00,
2013-01-20 13:25:00,64.7,37.8,30.07,NNE,23,0.0,0.0,37,0.00,,---,0.00,VWS V14.01,2013-01-20 21:25:00,
2013-01-20 13:30:00,65.3,37.7,30.07,NNE,16,1.0,0.0,36,0.00,,---,0.00,VWS V14.01,2013-01-20 21:30:00,
2013-01-20 13:36:00,65.8,37.4,30.07,NNW,331,0.0,0.0,35,0.00,,---,0.00,VWS V14.01,2013-01-20 21:36:00,
2013-01-20 13:41:00,65.9,37.5,30.07,NE,50,0.0,0.0,35,0.00,,---,0.00,VWS V14.01,2013-01-20 21:41:00,
2013-01-20 13:46:00,66.0,37.6,30.06,NE,42,2.0,0.0,35,0.00,,---,0.00,VWS V14.01,2013-01-20 21:46:00,
2013-01-20 13:51:00,66.2,36.3,30.06,NE,51,0.0,0.0,33,0.00,,---,0.00,VWS V14.01,2013-01-20 21:51:00,
2013-01-20 13:56:00,66.3,36.4,30.06,NNE,30,3.0,0.0,33,0.00,,---,0.00,VWS V14.01,2013-01-20 21:56:00,
2013-01-20 14:01:00,66.2,36.3,30.06,North,10,2.0,0.0,33,0.00,,---,0.00,VWS V14.01,2013-01-20 22:01:00,
2013-01-20 14:06:00,66.5,35.8,30.06,NNE,32,2.0,0.0,32,0.00,,---,0.00,VWS V14.01,2013-01-20 22:06:00,
2013-01-20 14:11:00,66.6,36.6,30.06,North,355,1.0,0.0,33,0.00,,---,0.00,VWS V14.01,2013-01-20 22:11:00,
2013-01-20 14:16:00,66.8,36.8,30.06,NW,313,0.0,0.0,33,0.00,,---,0.00,VWS V14.01,2013-01-20 22:16:00,
2013-01-20 14:21:00,67.2,36.4,30.06,North,9,0.0,0.0,32,0.00,,---,0.00,VWS V14.01,2013-01-20 22:21:00,
2013-01-20 14:26:00,67.5,36.6,30.06,NNE,26,5.0,0.0,32,0.00,,---,0.00,VWS V14.01,2013-01-20 22:26:00,
2013-01-20 14:31:00,67.9,37.0,30.06,NNW,335,0.0,0.0,32,0.00,,---,0.00,VWS V14.01,2013-01-20 22:31:00,
2013-01-20 14:37:00,67.3,35.7,30.05,NW,315,0.0,0.0,31,0.00,,---,0.00,VWS V14.01,2013-01-20 22:37:00,
2013-01-20 14:42:00,66.5,35.8,30.05,North,360,0.0,0.0,32,0.00,,---,0.00,VWS V14.01,2013-01-20 22:42:00,
2013-01-20 14:47:00,66.6,35.8,30.06,WNW,282,1.0,0.0,32,0.00,,---,0.00,VWS V14.01,2013-01-20 22:47:00,
2013-01-20 14:52:00,66.4,36.5,30.05,NW,320,0.0,0.0,33,0.00,,---,0.00,VWS V14.01,2013-01-20 22:52:00,
2013-01-20 14:57:00,66.6,35.8,30.05,NNW,329,1.0,0.0,32,0.00,,---,0.00,VWS V14.01,2013-01-20 22:57:00,
2013-01-20 15:02:00,66.0,35.3,30.05,NW,306,0.0,0.0,32,0.00,,---,0.00,VWS V14.01,2013-01-20 23:02:00,
2013-01-20 15:07:00,65.6,35.8,30.05,North,5,1.0,0.0,33,0.00,,---,0.00,VWS V14.01,2013-01-20 23:07:00,
2013-01-20 15:12:00,65.8,36.7,30.05,WNW,284,1.0,0.0,34,0.00,,---,0.00,VWS V14.01,2013-01-20 23:12:00,
2013-01-20 15:18:00,65.0,36.0,30.05,WNW,285,0.0,0.0,34,0.00,,---,0.00,VWS V14.01,2013-01-20 23:18:00,
2013-01-20 15:23:00,64.8,35.8,30.05,WNW,284,0.0,0.0,34,0.00,,---,0.00,VWS V14.01,2013-01-20 23:23:00,
2013-01-20 15:28:00,64.3,36.1,30.05,North,5,0.0,0.0,35,0.00,,---,0.00,VWS V14.01,2013-01-20 23:28:00,
2013-01-20 15:33:00,64.0,36.5,30.05,North,360,0.0,0.0,36,0.00,,---,0.00,VWS V14.01,2013-01-20 23:33:00,
2013-01-20 15:38:00,63.2,35.1,30.05,NW,314,1.0,0.0,35,0.00,,---,0.00,VWS V14.01,2013-01-20 23:38:00,
2013-01-20 15:43:00,62.8,35.5,30.04,NW,315,0.0,0.0,36,0.00,,---,0.00,VWS V14.01,2013-01-20 23:43:00,
2013-01-20 15:48:00,62.4,35.1,30.05,NNE,18,0.0,0.0,36,0.00,,---,0.00,VWS V14.01,2013-01-20 23:48:00,
2013-01-20 15:53:00,61.8,34.6,30.05,North,5,0.0,0.0,36,0.00,,---,0.00,VWS V14.01,2013-01-20 23:53:00,
2013-01-20 15:58:00,61.3,34.8,30.04,NNE,14,0.0,0.0,37,0.00,,---,0.00,VWS V14.01,2013-01-20 23:58:00,
2013-01-20 16:03:00,60.8,33.7,30.04,NNE,18,0.0,0.0,36,0.00,,---,0.00,VWS V14.01,2013-01-21 00:03:00,
2013-01-20 16:08:00,60.4,34.7,30.04,NNE,17,1.0,0.0,38,0.00,,---,0.00,VWS V14.01,2013-01-21 00:08:00,
2013-01-20 16:13:00,60.1,35.1,30.04,North,360,1.0,0.0,39,0.00,,---,0.00,VWS V14.01,2013-01-21 00:13:00,
2013-01-20 16:18:00,59.6,34.0,30.05,North,360,0.0,0.0,38,0.00,,---,0.00,VWS V14.01,2013-01-21 00:18:00,
2013-01-20 16:23:00,59.2,34.3,30.05,North,360,0.0,0.0,39,0.00,,---,0.00,VWS V14.01,2013-01-21 00:23:00,
2013-01-20 16:29:00,58.8,34.5,30.05,North,11,0.0,0.0,40,0.00,,---,0.00,VWS V14.01,2013-01-21 00:29:00,
2013-01-20 16:34:00,58.4,34.8,30.05,North,355,0.0,0.0,41,0.00,,---,0.00,VWS V14.01,2013-01-21 00:34:00,
2013-01-20 16:39:00,57.9,34.4,30.05,North,355,0.0,0.0,41,0.00,,---,0.00,VWS V14.01,2013-01-21 00:39:00,
2013-01-20 16:44:00,57.5,35.2,30.05,North,355,0.0,0.0,43,0.00,,---,0.00,VWS V14.01,2013-01-21 00:44:00,
2013-01-20 16:49:00,56.9,35.2,30.05,North,355,0.0,0.0,44,0.00,,---,0.00,VWS V14.01,2013-01-21 00:49:00,
2013-01-20 16:54:00,56.3,35.8,30.06,North,355,0.0,0.0,46,0.00,,---,0.00,VWS V14.01,2013-01-21 00:54:00,
2013-01-20 16:59:00,55.7,35.8,30.06,North,355,0.0,0.0,47,0.00,,---,0.00,VWS V14.01,2013-01-21 00:59:00,
2013-01-20 17:04:00,55.0,36.2,30.06,North,355,0.0,0.0,49,0.00,,---,0.00,VWS V14.01,2013-01-21 01:04:00,
2013-01-20 17:09:00,54.4,35.1,30.06,North,355,0.0,0.0,48,0.00,,---,0.00,VWS V14.01,2013-01-21 01:09:00,
2013-01-20 17:14:00,53.8,35.6,30.06,North,355,0.0,0.0,50,0.00,,---,0.00,VWS V14.01,2013-01-21 01:14:00,
2013-01-20 17:19:00,53.3,35.2,30.06,North,355,0.0,0.0,50,0.00,,---,0.00,VWS V14.01,2013-01-21 01:19:00,
2013-01-20 17:24:00,52.9,35.8,30.06,North,355,0.0,0.0,52,0.00,,---,0.00,VWS V14.01,2013-01-21 01:24:00,
2013-01-20 17:29:00,52.2,35.1,30.07,North,355,0.0,0.0,52,0.00,,---,0.00,VWS V14.01,2013-01-21 01:29:00,
2013-01-20 17:34:00,51.8,34.3,30.07,North,355,0.0,0.0,51,0.00,,---,0.00,VWS V14.01,2013-01-21 01:34:00,
2013-01-20 17:39:00,51.6,34.1,30.07,North,355,0.0,0.0,51,0.00,,---,0.00,VWS V14.01,2013-01-21 01:39:00,
2013-01-20 17:44:00,51.4,34.4,30.07,North,355,0.0,0.0,52,0.00,,---,0.00,VWS V14.01,2013-01-21 01:44:00,
2013-01-20 17:49:00,51.1,34.6,30.07,North,355,0.0,0.0,53,0.00,,---,0.00,VWS V14.01,2013-01-21 01:49:00,
2013-01-20 17:54:00,50.7,34.7,30.08,North,355,0.0,0.0,54,0.00,,---,0.00,VWS V14.01,2013-01-21 01:54:00,
2013-01-20 17:59:00,50.3,34.3,30.08,North,355,0.0,0.0,54,0.00,,---,0.00,VWS V14.01,2013-01-21 01:59:00,
2013-01-20 18:04:00,50.0,34.0,30.08,North,355,0.0,0.0,54,0.00,,---,0.00,VWS V14.01,2013-01-21 02:04:00,
2013-01-20 18:09:00,49.7,33.8,30.08,North,355,0.0,0.0,54,0.00,,---,0.00,VWS V14.01,2013-01-21 02:09:00,
2013-01-20 18:14:00,49.6,34.1,30.08,North,355,0.0,0.0,55,0.00,,---,0.00,VWS V14.01,2013-01-21 02:14:00,
2013-01-20 18:19:00,49.5,34.5,30.08,North,355,0.0,0.0,56,0.00,,---,0.00,VWS V14.01,2013-01-21 02:19:00,
2013-01-20 18:25:00,49.4,35.3,30.08,North,355,0.0,0.0,58,0.00,,---,0.00,VWS V14.01,2013-01-21 02:25:00,
2013-01-20 18:30:00,49.2,35.1,30.08,North,355,0.0,0.0,58,0.00,,---,0.00,VWS V14.01,2013-01-21 02:30:00,
2013-01-20 18:35:00,49.1,35.0,30.08,North,355,0.0,0.0,58,0.00,,---,0.00,VWS V14.01,2013-01-21 02:35:00,
2013-01-20 18:40:00,48.8,35.1,30.08,North,355,0.0,0.0,59,0.00,,---,0.00,VWS V14.01,2013-01-21 02:40:00,
2013-01-20 18:45:00,48.6,34.9,30.08,North,350,0.0,0.0,59,0.00,,---,0.00,VWS V14.01,2013-01-21 02:45:00,
2013-01-20 18:50:00,48.3,35.1,30.08,North,355,0.0,0.0,60,0.00,,---,0.00,VWS V14.01,2013-01-21 02:50:00,
2013-01-20 18:55:00,48.1,34.9,30.08,North,355,0.0,0.0,60,0.00,,---,0.00,VWS V14.01,2013-01-21 02:55:00,
2013-01-20 19:00:00,47.8,35.0,30.08,North,355,0.0,0.0,61,0.00,,---,0.00,VWS V14.01,2013-01-21 03:00:00,
2013-01-20 19:05:00,47.6,34.4,30.08,North,355,0.0,0.0,60,0.00,,---,0.00,VWS V14.01,2013-01-21 03:05:00,
2013-01-20 19:10:00,47.3,34.5,30.08,North,355,0.0,0.0,61,0.00,,---,0.00,VWS V14.01,2013-01-21 03:10:00,
2013-01-20 19:15:00,47.0,34.7,30.08,North,355,0.0,0.0,62,0.00,,---,0.00,VWS V14.01,2013-01-21 03:15:00,
2013-01-20 19:20:00,46.7,34.4,30.08,North,350,0.0,0.0,62,0.00,,---,0.00,VWS V14.01,2013-01-21 03:20:00,
2013-01-20 19:25:00,46.5,34.6,30.08,North,355,0.0,0.0,63,0.00,,---,0.00,VWS V14.01,2013-01-21 03:25:00,
2013-01-20 19:30:00,46.3,34.4,30.08,North,355,0.0,0.0,63,0.00,,---,0.00,VWS V14.01,2013-01-21 03:30:00,
2013-01-20 19:35:00,46.1,34.2,30.08,North,355,0.0,0.0,63,0.00,,---,0.00,VWS V14.01,2013-01-21 03:35:00,
2013-01-20 19:41:00,45.7,34.6,30.08,North,355,0.0,0.0,65,0.00,,---,0.00,VWS V14.01,2013-01-21 03:41:00,
2013-01-20 19:46:00,45.4,34.3,30.08,North,355,0.0,0.0,65,0.00,,---,0.00,VWS V14.01,2013-01-21 03:46:00,
2013-01-20 19:51:00,45.3,34.6,30.08,North,355,0.0,0.0,66,0.00,,---,0.00,VWS V14.01,2013-01-21 03:51:00,
2013-01-20 19:56:00,45.2,34.5,30.08,North,355,0.0,0.0,66,0.00,,---,0.00,VWS V14.01,2013-01-21 03:56:00,
2013-01-20 20:02:00,45.1,34.4,30.08,North,355,0.0,0.0,66,0.00,,---,0.00,VWS V14.01,2013-01-21 04:02:00,
2013-01-20 20:07:00,45.1,34.4,30.09,North,355,0.0,0.0,66,0.00,,---,0.00,VWS V14.01,2013-01-21 04:07:00,
2013-01-20 20:12:00,45.0,34.7,30.09,North,360,0.0,0.0,67,0.00,,---,0.00,VWS V14.01,2013-01-21 04:12:00,
2013-01-20 20:17:00,44.9,34.2,30.09,North,355,0.0,0.0,66,0.00,,---,0.00,VWS V14.01,2013-01-21 04:17:00,
2013-01-20 20:22:00,44.9,35.0,30.09,North,355,0.0,0.0,68,0.00,,---,0.00,VWS V14.01,2013-01-21 04:22:00,
2013-01-20 20:27:00,44.7,34.8,30.09,North,355,0.0,0.0,68,0.00,,---,0.00,VWS V14.01,2013-01-21 04:27:00,
2013-01-20 20:32:00,44.7,35.2,30.09,North,355,0.0,0.0,69,0.00,,---,0.00,VWS V14.01,2013-01-21 04:32:00,
2013-01-20 20:37:00,44.5,35.0,30.09,North,355,0.0,0.0,69,0.00,,---,0.00,VWS V14.01,2013-01-21 04:37:00,
2013-01-20 20:42:00,44.3,35.2,30.09,North,355,0.0,0.0,70,0.00,,---,0.00,VWS V14.01,2013-01-21 04:42:00,
2013-01-20 20:47:00,44.1,35.0,30.09,North,355,0.0,0.0,70,0.00,,---,0.00,VWS V14.01,2013-01-21 04:47:00,
2013-01-20 20:52:00,44.0,34.9,30.09,North,355,0.0,0.0,70,0.00,,---,0.00,VWS V14.01,2013-01-21 04:52:00,
2013-01-20 20:57:00,43.8,35.0,30.09,North,355,0.0,0.0,71,0.00,,---,0.00,VWS V14.01,2013-01-21 04:57:00,
2013-01-20 21:00:00,43.7,34.9,30.09,North,355,0.0,0.0,71,0.00,,---,0.00,VWS V14.01,2013-01-21 05:00:00,
2013-01-20 21:01:00,43.7,34.9,30.09,North,355,0.0,0.0,71,0.00,,---,0.00,VWS V14.01,2013-01-21 05:01:00,
2013-01-20 21:03:00,43.6,35.2,30.09,North,355,0.0,0.0,72,0.00,,---,0.00,VWS V14.01,2013-01-21 05:03:00,
2013-01-20 21:08:00,43.5,34.7,30.09,North,355,0.0,0.0,71,0.00,,---,0.00,VWS V14.01,2013-01-21 05:08:00,
2013-01-20 21:13:00,43.5,35.1,30.09,North,355,0.0,0.0,72,0.00,,---,0.00,VWS V14.01,2013-01-21 05:13:00,
2013-01-20 21:18:00,43.4,35.0,30.09,North,355,0.0,0.0,72,0.00,,---,0.00,VWS V14.01,2013-01-21 05:18:00,
2013-01-20 21:23:00,43.3,34.9,30.09,North,355,0.0,0.0,72,0.00,,---,0.00,VWS V14.01,2013-01-21 05:23:00,
2013-01-20 21:29:00,43.3,34.9,30.10,North,355,0.0,0.0,72,0.00,,---,0.00,VWS V14.01,2013-01-21 05:29:00,
2013-01-20 21:34:00,43.2,34.8,30.10,North,355,0.0,0.0,72,0.00,,---,0.00,VWS V14.01,2013-01-21 05:34:00,
2013-01-20 21:39:00,43.1,35.0,30.10,North,355,0.0,0.0,73,0.00,,---,0.00,VWS V14.01,2013-01-21 05:39:00,
2013-01-20 21:44:00,43.0,35.0,30.10,North,355,0.0,0.0,73,0.00,,---,0.00,VWS V14.01,2013-01-21 05:44:00,
2013-01-20 21:49:00,42.9,35.2,30.10,North,355,0.0,0.0,74,0.00,,---,0.00,VWS V14.01,2013-01-21 05:49:00,
2013-01-20 21:54:00,42.7,35.0,30.10,North,355,0.0,0.0,74,0.00,,---,0.00,VWS V14.01,2013-01-21 05:54:00,
2013-01-20 21:59:00,42.6,35.2,30.10,North,355,0.0,0.0,75,0.00,,---,0.00,VWS V14.01,2013-01-21 05:59:00,
2013-01-20 22:04:00,42.5,35.2,30.10,North,355,0.0,0.0,75,0.00,,---,0.00,VWS V14.01,2013-01-21 06:04:00,
2013-01-20 22:09:00,42.5,35.5,30.10,North,355,0.0,0.0,76,0.00,,---,0.00,VWS V14.01,2013-01-21 06:09:00,
2013-01-20 22:14:00,42.5,35.5,30.10,North,355,0.0,0.0,76,0.00,,---,0.00,VWS V14.01,2013-01-21 06:14:00,
2013-01-20 22:19:00,42.5,35.5,30.10,North,355,0.0,0.0,76,0.00,,---,0.00,VWS V14.01,2013-01-21 06:19:00,
2013-01-20 22:25:00,42.4,35.0,30.10,North,355,0.0,0.0,75,0.00,,---,0.00,VWS V14.01,2013-01-21 06:25:00,
2013-01-20 22:30:00,42.4,35.4,30.10,North,355,0.0,0.0,76,0.00,,---,0.00,VWS V14.01,2013-01-21 06:30:00,
2013-01-20 22:35:00,42.4,35.4,30.10,North,355,0.0,0.0,76,0.00,,---,0.00,VWS V14.01,2013-01-21 06:35:00,
2013-01-20 22:40:00,42.3,35.3,30.10,North,355,0.0,0.0,76,0.00,,---,0.00,VWS V14.01,2013-01-21 06:40:00,
2013-01-20 22:45:00,42.2,35.2,30.10,North,355,0.0,0.0,76,0.00,,---,0.00,VWS V14.01,2013-01-21 06:45:00,
2013-01-20 22:50:00,42.0,35.3,30.10,North,355,0.0,0.0,77,0.00,,---,0.00,VWS V14.01,2013-01-21 06:50:00,
2013-01-20 22:55:00,41.9,35.2,30.10,North,355,0.0,0.0,77,0.00,,---,0.00,VWS V14.01,2013-01-21 06:55:00,
2013-01-20 23:00:00,41.8,35.1,30.10,North,355,0.0,0.0,77,0.00,,---,0.00,VWS V14.01,2013-01-21 07:00:00,
2013-01-20 23:05:00,41.8,35.1,30.10,North,355,0.0,0.0,77,0.00,,---,0.00,VWS V14.01,2013-01-21 07:05:00,
2013-01-20 23:10:00,41.7,35.4,30.10,North,355,0.0,0.0,78,0.00,,---,0.00,VWS V14.01,2013-01-21 07:10:00,
2013-01-20 23:15:00,41.6,35.3,30.10,North,355,0.0,0.0,78,0.00,,---,0.00,VWS V14.01,2013-01-21 07:15:00,
2013-01-20 23:20:00,41.6,35.3,30.10,North,355,0.0,0.0,78,0.00,,---,0.00,VWS V14.01,2013-01-21 07:20:00,
2013-01-20 23:26:00,41.5,35.2,30.10,North,355,0.0,0.0,78,0.00,,---,0.00,VWS V14.01,2013-01-21 07:26:00,
2013-01-20 23:31:00,41.5,35.2,30.09,North,355,0.0,0.0,78,0.00,,---,0.00,VWS V14.01,2013-01-21 07:31:00,
2013-01-20 23:36:00,41.5,35.2,30.09,ESE,107,0.0,0.0,78,0.00,,---,0.00,VWS V14.01,2013-01-21 07:36:00,
2013-01-20 23:41:00,41.6,35.3,30.09,ESE,107,0.0,0.0,78,0.00,,---,0.00,VWS V14.01,2013-01-21 07:41:00,
2013-01-20 23:46:00,41.6,35.3,30.09,East,101,0.0,0.0,78,0.00,,---,0.00,VWS V14.01,2013-01-21 07:46:00,
2013-01-20 23:51:00,41.6,35.3,30.09,East,101,0.0,0.0,78,0.00,,---,0.00,VWS V14.01,2013-01-21 07:51:00,
2013-01-20 23:56:00,41.5,35.2,30.09,East,101,0.0,0.0,78,0.00,,---,0.00,VWS V14.01,2013-01-21 07:56:00,